SL-16 DEB

Satellite information

Favourite Embed

Satellite Type and Status

DEBRISIN ORBIT

Key statistics

Satellite SL-16 DEB at a glance.

Uptime

11001

Days in orbit

Revolutions

≈ 13.7

Per day

Orbit

LEO

Low Earth Orbit

Inclination

71.0

Latest

Satellite identification and parameters

Extended collection of information and parameters for SL-16 DEB.

Object identification

Identified? True

Debris? True

Object name: SL-16 DEB

International designator: 1995-058C

Object number (NORAD): 23706

Object ID (CCSDS): 23706

Country: COMMONWEALTH OF INDEPENDENT STATES (CIS)

Current information (Y/N): Y

RCS size: SMALL

Orbital parameters

Period: 104.774 minutes

Inclination: 71.001 deg

SMA: 7362.022 km

Apoapsis: 1131.643 km

Periapsis: 836.131 km

RAAN: 82.048 deg

Eccentricy: 0.02007002

Argument of periapsis: 308.6648 deg

Mean anomaly: 114.9211 deg

Mean motion: 13.74380805 rev/day

Mean motion (dot): 0.0000022 rev/day2

B* drag term: 0.00024174703 1/REarth

Two-line elements (TLE)

Creation date: Dec. 12, 2025, 10:14 a.m.

Reference frame: TEME

Reference center: EARTH

Epoch: Dec. 12, 2025, 7:07 a.m. UTC

TLE line 0: 0 SL-16 DEB

TLE line 1: 1 23706U 95058C 25346.29675309 .00000220 00000-0 24175-3 0 9992

TLE line 2: 2 23706 71.0010 82.0480 0200700 308.6648 114.9211 13.74380805509647

Live tracking on map

Real-time ground track for satellite SL-16 DEB.

In-orbit conjunctions

A list of the most updated potential collisions computed for object SL-16 DEB.

Target Orbit TCA Probability of collision Miss distance Type
COSMOS 1275 DEB LEO 2024-06-05 13:31:43 0.000100536 79.0 (m) DEBRIS

Associated space launch

Second generation ELING satellite

SL-16 DEB was lifted into orbit during the mission ‘Zenit-2 | Tselina-2 17’, on board a Zenit-2 space rocket.

The launch took place on Oct. 31, 1995, 8:19 p.m. from 45/1.

For more information about the launch, click the button.

Launch to space Zenit-2 | Tselina-2 17
Zenit-2 | Tselina-2 17

Agency: N/A

Status: Launch Successful

Launch date: Oct. 31, 1995, 8:19 p.m. UTC

Rocket: Zenit-2

Launch pad: 45/1

Location: Baikonur Cosmodrome, Republic of Kazakhstan

...

Latest news about this satellite

There are no fresh news available about this satellite. Check back as we update our databases every day.


Newsletter sign-up

Weekly statistics, charts and insights to help you stay on top of the space industry.